Overview Statistics Trail Chart Weather Telemetry Raw packets
 

This is the latest recevied weather packets stored in our database for station/object WE1C. If no packets are shown the sender has not sent any weather packets the latest 10 day(s).

<< 91 92 93 94 95 96 97 >>
Time Temp. Humidity Pressure Rain* Wind** Luminosity Snow
1787933738 25° C 83% 1045 hPa 0 mm - 688 W/m² -
1787933433 25° C 80% 1045 hPa 0 mm - 222 W/m² -
1787933133 24.44° C 81% 1045.1 hPa 0 mm - 306 W/m² -
1787932827 25° C 83% 1044.8 hPa 0 mm - 349 W/m² -
1787932521 24.44° C 82% 1045.1 hPa 0 mm - 428 W/m² -
1787932216 24.44° C 82% 1045.3 hPa 0 mm - 231 W/m² -
1787931915 25° C 81% 1045 hPa 0 mm - 409 W/m² -
1787931615 25.56° C 79% 1045 hPa 0 mm - 408 W/m² -
1787931310 25° C 81% 1045.2 hPa 0 mm - 831 W/m² -
1787931010 24.44° C 81% 1045.1 hPa 0 mm - 737 W/m² -
1787930709 25° C 80% 1045.1 hPa 0 mm - 367 W/m² -
1787930403 25° C 82% 1045.2 hPa 0 mm - 384 W/m² -
1787930099 24.44° C 83% 1045.2 hPa 0 mm - 445 W/m² -
1787929797 24.44° C 82% 1045.3 hPa 0 mm - 559 W/m² -
1787929492 24.44° C 85% 1045.2 hPa 0 mm - 491 W/m² -
1787929190 24.44° C 84% 1045.4 hPa 0 mm - 308 W/m² -
1787928884 24.44° C 86% 1045.1 hPa 0 mm - 393 W/m² -
1787928579 24.44° C 84% 1045.1 hPa 0 mm - 390 W/m² -
1787928277 24.44° C 84% 1045.1 hPa 0 mm - 477 W/m² -
1787927976 23.89° C 86% 1045.2 hPa 0 mm - 646 W/m² -
1787927666 23.33° C 89% 1045.4 hPa 0 mm - 455 W/m² -
1787927365 23.33° C 90% 1045.3 hPa 0 mm - 410 W/m² -
1787927061 22.78° C 91% 1045 hPa 0 mm - 318 W/m² -
1787926756 22.78° C 92% 1045.1 hPa 0 mm - 190 W/m² -
1787926455 22.78° C 92% 1045.3 hPa 0 mm - 261 W/m² -

* Rain latest hour (hover to see other rain measurements)
** Current wind speed in m/s (hover to see current wind gust speed)